Hourly Weather Holyapino

Today, 11 April, Sunday

Time Temperature Precipitation Wind Pressure Humidity
00:00 +3°C° 0 mm 2 mps 753 mmHg 66%
01:00 +3°C° 0 mm 2 mps 754 mmHg 67%
02:00 +2°C° 0 mm 2 mps 754 mmHg 69%
03:00 +2°C° 0 mm 2 mps 754 mmHg 70%
04:00 +2°C° 0 mm 2 mps 754 mmHg 71%
05:00 +3°C° 0 mm 1 mps 755 mmHg 72%
06:00 +5°C° 0 mm 1 mps 755 mmHg 67%
07:00 +6°C° 0 mm 1 mps 755 mmHg 62%
08:00 +8°C° 0 mm 1 mps 756 mmHg 57%
09:00 +10°C° 0 mm 1 mps 756 mmHg 52%
10:00 +11°C° 0 mm 1 mps 756 mmHg 48%
11:00 +13°C° 0 mm 1 mps 756 mmHg 43%
12:00 +12°C° 0 mm 0 mps 756 mmHg 42%
13:00 +13°C° 0 mm 0 mps 756 mmHg 40%
14:00 +14°C° 0 mm 0 mps 756 mmHg 38%
15:00 +14°C° 0 mm 1 mps 756 mmHg 41%
16:00 +14°C° 0 mm 1 mps 756 mmHg 44%
17:00 +14°C° 0 mm 2 mps 756 mmHg 47%
18:00 +12°C° 0 mm 2 mps 756 mmHg 51%
19:00 +10°C° 0 mm 2 mps 756 mmHg 55%
20:00 +9°C° 0 mm 2 mps 757 mmHg 59%
21:00 +8°C° 0 mm 2 mps 757 mmHg 62%
22:00 +7°C° 0 mm 2 mps 757 mmHg 65%
23:00 +6°C° 0 mm 2 mps 757 mmHg 68%

Tomorrow, 12 April, Monday

Time Temperature Precipitation Wind Pressure Humidity
00:00 +6°C° 0 mm 2 mps 757 mmHg 69%
01:00 +5°C° 0 mm 3 mps 757 mmHg 71%
02:00 +4°C° 0 mm 3 mps 757 mmHg 73%
03:00 +4°C° 0 mm 3 mps 757 mmHg 72%
04:00 +3°C° 0 mm 4 mps 757 mmHg 72%
05:00 +3°C° 0 mm 4 mps 757 mmHg 72%
06:00 +3°C° 0 mm 5 mps 757 mmHg 65%
07:00 +5°C° 0 mm 5 mps 756 mmHg 59%
08:00 +5°C° 0 mm 6 mps 756 mmHg 53%
09:00 +7°C° 0 mm 6 mps 756 mmHg 58%
10:00 +9°C° 0 mm 6 mps 756 mmHg 62%
11:00 +10°C° 0 mm 6 mps 755 mmHg 66%
12:00 +11°C° 0 mm 6 mps 755 mmHg 67%
13:00 +12°C° 0 mm 5 mps 755 mmHg 67%
14:00 +13°C° 0 mm 5 mps 754 mmHg 67%
15:00 +13°C° 0 mm 5 mps 754 mmHg 69%
16:00 +13°C° 0 mm 4 mps 754 mmHg 71%
17:00 +13°C° 0 mm 4 mps 754 mmHg 73%
18:00 +12°C° 0 mm 4 mps 754 mmHg 78%
19:00 +11°C° 0 mm 3 mps 754 mmHg 84%
20:00 +9°C° 0 mm 3 mps 754 mmHg 90%
21:00 +9°C° 0 mm 3 mps 753 mmHg 90%
22:00 +9°C° 0 mm 3 mps 753 mmHg 90%
23:00 +9°C° 0 mm 3 mps 752 mmHg 90%

Day after tomorrow, 13 April, Tuesday

Time Temperature Precipitation Wind Pressure Humidity
00:00 +8°C° 0 mm 3 mps 752 mmHg 88%
01:00 +8°C° 0 mm 3 mps 752 mmHg 86%
02:00 +8°C° 0 mm 3 mps 752 mmHg 84%
03:00 +8°C° 0 mm 3 mps 752 mmHg 84%
04:00 +8°C° 0 mm 3 mps 752 mmHg 84%
05:00 +8°C° 0 mm 3 mps 752 mmHg 84%
06:00 +9°C° 0 mm 3 mps 752 mmHg 78%
07:00 +11°C° 0 mm 3 mps 752 mmHg 72%
08:00 +12°C° 0 mm 4 mps 752 mmHg 67%
09:00 +14°C° 0 mm 4 mps 752 mmHg 60%
10:00 +16°C° 0 mm 5 mps 752 mmHg 53%
11:00 +17°C° 0 mm 5 mps 752 mmHg 47%
12:00 +19°C° 0 mm 5 mps 752 mmHg 44%
13:00 +20°C° 0 mm 5 mps 752 mmHg 41%
14:00 +20°C° 0 mm 5 mps 752 mmHg 38%
15:00 +20°C° 0 mm 4 mps 751 mmHg 41%
16:00 +19°C° 0 mm 4 mps 751 mmHg 44%
17:00 +18°C° 0 mm 3 mps 751 mmHg 48%
18:00 +17°C° 0 mm 3 mps 751 mmHg 52%
19:00 +14°C° 0 mm 3 mps 751 mmHg 57%
20:00 +13°C° 0 mm 3 mps 751 mmHg 61%
21:00 +12°C° 0 mm 3 mps 751 mmHg 62%
22:00 +12°C° 0 mm 4 mps 751 mmHg 64%
23:00 +11°C° 0 mm 4 mps 750 mmHg 65%

14 April, Wednesday

Time Temperature Precipitation Wind Pressure Humidity
00:00 +11°C° 0 mm 4 mps 750 mmHg 67%
01:00 +10°C° 0 mm 3 mps 750 mmHg 69%
02:00 +9°C° 0 mm 3 mps 750 mmHg 72%
03:00 +9°C° 0 mm 3 mps 750 mmHg 73%
04:00 +9°C° 0 mm 3 mps 750 mmHg 75%
05:00 +8°C° 0 mm 3 mps 750 mmHg 77%
06:00 +10°C° 0 mm 3 mps 750 mmHg 70%
07:00 +12°C° 0 mm 4 mps 750 mmHg 64%
08:00 +13°C° 0 mm 4 mps 750 mmHg 57%
09:00 +14°C° 0 mm 4 mps 750 mmHg 53%
10:00 +15°C° 0 mm 4 mps 749 mmHg 49%
11:00 +17°C° 0 mm 4 mps 749 mmHg 45%
12:00 +17°C° 0 mm 5 mps 749 mmHg 40%
13:00 +19°C° 0 mm 5 mps 749 mmHg 36%
14:00 +20°C° 0 mm 5 mps 748 mmHg 32%
15:00 +19°C° 0 mm 5 mps 748 mmHg 35%
16:00 +19°C° 0 mm 4 mps 748 mmHg 39%
17:00 +18°C° 0 mm 3 mps 748 mmHg 43%
18:00 +16°C° 0 mm 3 mps 748 mmHg 46%
19:00 +14°C° 0 mm 3 mps 748 mmHg 50%
20:00 +12°C° 0 mm 3 mps 748 mmHg 54%
21:00 +12°C° 0 mm 3 mps 747 mmHg 55%
22:00 +13°C° 0 mm 2 mps 747 mmHg 57%
23:00 +12°C° 0 mm 2 mps 747 mmHg 59%

15 April, Thursday

Time Temperature Precipitation Wind Pressure Humidity
00:00 +12°C° 0 mm 2 mps 747 mmHg 60%
01:00 +10°C° 0 mm 2 mps 747 mmHg 62%
02:00 +10°C° 0 mm 2 mps 746 mmHg 64%
03:00 +10°C° 0 mm 2 mps 746 mmHg 65%
04:00 +10°C° 0 mm 2 mps 746 mmHg 66%
05:00 +10°C° 0 mm 1 mps 746 mmHg 67%
06:00 +12°C° 0 mm 2 mps 746 mmHg 64%
07:00 +13°C° 0 mm 2 mps 746 mmHg 60%
08:00 +13°C° 0 mm 3 mps 746 mmHg 57%
09:00 +14°C° 0 mm 3 mps 746 mmHg 54%
10:00 +16°C° 0 mm 2 mps 746 mmHg 51%
11:00 +17°C° 0 mm 2 mps 746 mmHg 48%
12:00 +18°C° 0 mm 2 mps 746 mmHg 47%
13:00 +18°C° 0 mm 2 mps 746 mmHg 46%
14:00 +19°C° 0 mm 1 mps 746 mmHg 45%
15:00 +18°C° 0 mm 2 mps 745 mmHg 48%
16:00 +17°C° 0 mm 2 mps 745 mmHg 51%
17:00 +17°C° 0 mm 2 mps 745 mmHg 54%
18:00 +16°C° 0 mm 3 mps 745 mmHg 59%
19:00 +13°C° 0 mm 3 mps 745 mmHg 63%
20:00 +12°C° 0 mm 3 mps 745 mmHg 67%
21:00 +12°C° 0.1 mm 4 mps 745 mmHg 71%
22:00 +10°C° 0.1 mm 5 mps 746 mmHg 74%
23:00 +9°C° 0.1 mm 6 mps 746 mmHg 78%

16 April, Friday

Time Temperature Precipitation Wind Pressure Humidity
00:00 +8°C° 0.1 mm 7 mps 746 mmHg 80%
01:00 +6°C° 0.1 mm 7 mps 746 mmHg 83%
02:00 +5°C° 0.1 mm 8 mps 747 mmHg 86%
03:00 +5°C° 0 mm 8 mps 747 mmHg 86%
04:00 +4°C° 0 mm 8 mps 747 mmHg 85%
05:00 +2°C° 0 mm 8 mps 747 mmHg 85%
06:00 +4°C° 0.1 mm 8 mps 748 mmHg 82%
07:00 +3°C° 0.1 mm 9 mps 748 mmHg 79%
08:00 +3°C° 0.1 mm 9 mps 749 mmHg 76%
09:00 +3°C° 0 mm 9 mps 749 mmHg 71%
10:00 +5°C° 0 mm 9 mps 749 mmHg 66%
11:00 +5°C° 0 mm 9 mps 750 mmHg 61%
12:00 +6°C° 0 mm 9 mps 750 mmHg 56%
13:00 +7°C° 0 mm 9 mps 750 mmHg 51%
14:00 +7°C° 0 mm 9 mps 750 mmHg 47%
15:00 +7°C° 0 mm 8 mps 751 mmHg 46%
16:00 +7°C° 0 mm 8 mps 751 mmHg 45%
17:00 +7°C° 0 mm 8 mps 751 mmHg 45%
18:00 +6°C° 0 mm 8 mps 752 mmHg 46%
19:00 +5°C° 0 mm 8 mps 752 mmHg 46%
20:00 +4°C° 0 mm 7 mps 753 mmHg 47%
21:00 +3°C° 0 mm 7 mps 754 mmHg 49%
22:00 +2°C° 0 mm 7 mps 754 mmHg 52%
23:00 +1°C° 0 mm 6 mps 755 mmHg 54%
Show more